Indiana, PA

2:17 PM EST on December 15, 2019 (GMT -0500)
Indiana County-Stewart

Weather History for KIDI - August, 2019

Change the Weather History Date:

Saturday, August 3, 2019

  Actual Average Record
Temperature  
Mean Temperature 71 °F -  
Max Temperature 82 °F 82 °F 95 °F (1955)
Min Temperature 60 °F 59 °F 45 °F (1959)
Cooling Degree Days 6    
Growing Degree Days 21 (Base 50)    
Moisture  
Dew Point 65 °F    
Average Humidity 81    
Maximum Humidity 100    
Minimum Humidity 54    
Precipitation  
Precipitation 0.00 in - - ()
Sea Level Pressure  
Sea Level Pressure 30.08 in    
Wind  
Wind Speed 2 mph (WNW)    
Max Wind Speed 9 mph    
Max Gust Speed 14 mph    
Visibility 10 miles    
Events      
Averages and records for this station are not official NWS values.
T = Trace of Precipitation, MM = Missing Value Source: NWS Daily Summary

Daily Weather History Graph

Daily Weather History Graph

Search for Another Location

Airport or City:

Astronomy

Aug. 03, 2019 Rise Set
Actual Time 6:15 AM EDT 8:29 PM EDT
Civil Twilight 5:44 AM EDT 9:00 PM EDT
Nautical Twilight 5:06 AM EDT 9:37 PM EDT
Astronomical Twilight 4:25 AM EDT 10:18 PM EDT
Moon 9:06 AM EDT (8/3) 10:33 PM EDT (8/3)
Length of Visible Light 15h 15m
Length of Day
14h 14m
Waxing Crescent, 10% of the Moon is Illuminated
Aug 3
Waxing Crescent
Aug 7
First Quarter
Aug 15
Full
Aug 23
Last Quarter
Aug 30
New

Hourly Weather History & Observations

Time (EDT) Temp. Heat Index Dew Point Humidity Pressure Visibility Wind Dir Wind Speed Gust Speed Precip Events Conditions
12:15 AM 64.4 °F - 64.4 °F 100% 30.13 in 10.0 mi Calm Calm - N/A   Clear
12:35 AM 64.4 °F - 64.4 °F 100% 30.13 in 10.0 mi Calm Calm - N/A   Clear
12:55 AM 64.4 °F - 64.4 °F 100% 30.12 in 10.0 mi Calm Calm - N/A   Clear
1:15 AM 64.4 °F - 64.4 °F 100% 30.12 in 10.0 mi Calm Calm - N/A   Clear
1:35 AM 64.4 °F - 64.4 °F 100% 30.12 in 10.0 mi Calm Calm - N/A   Clear
1:55 AM 64.4 °F - 64.4 °F 100% 30.12 in 10.0 mi Calm Calm - N/A   Clear
2:15 AM 64.4 °F - 64.4 °F 100% 30.11 in 10.0 mi Calm Calm - N/A   Clear
2:35 AM 64.4 °F - 64.4 °F 100% 30.11 in 10.0 mi Calm Calm - N/A   Clear
2:55 AM 62.6 °F - 62.6 °F 100% 30.11 in 10.0 mi Calm Calm - N/A   Clear
3:15 AM 64.4 °F - 64.4 °F 100% 30.11 in 9.0 mi Calm Calm - N/A   Partly Cloudy
3:35 AM 62.6 °F - 62.6 °F 100% 30.10 in 7.0 mi Calm Calm - N/A   Partly Cloudy
3:55 AM 64.4 °F - 64.4 °F 100% 30.10 in 10.0 mi East 6.9 mph - N/A   Clear
4:15 AM 62.6 °F - 62.6 °F 100% 30.10 in 9.0 mi Calm Calm - N/A   Clear
4:35 AM 62.6 °F - 62.6 °F 100% 30.10 in 10.0 mi Calm Calm - N/A   Clear
4:55 AM 62.6 °F - 62.6 °F 100% 30.10 in 9.0 mi Calm Calm - N/A   Clear
5:15 AM 62.6 °F - 62.6 °F 100% 30.10 in 9.0 mi Calm Calm - N/A   Clear
5:35 AM 62.6 °F - 62.6 °F 100% 30.11 in 8.0 mi Calm Calm - N/A   Clear
5:55 AM 62.6 °F - 62.6 °F 100% 30.11 in 8.0 mi Calm Calm - N/A   Clear
6:15 AM 62.6 °F - 62.6 °F 100% 30.11 in 9.0 mi Calm Calm - N/A   Clear
6:35 AM 60.8 °F - 60.8 °F 100% 30.12 in 8.0 mi Calm Calm - N/A   Clear
6:55 AM 60.8 °F - 60.8 °F 100% 30.12 in 7.0 mi Calm Calm - N/A   Clear
7:15 AM 62.6 °F - 62.6 °F 100% 30.12 in 9.0 mi Calm Calm - N/A   Clear
7:35 AM 64.4 °F - 64.4 °F 100% 30.12 in 9.0 mi Calm Calm - N/A   Clear
7:55 AM 64.4 °F - 64.4 °F 100% 30.12 in 9.0 mi Calm Calm - N/A   Scattered Clouds
8:15 AM 66.2 °F - 66.2 °F 100% 30.12 in 10.0 mi Calm Calm - N/A   Partly Cloudy
8:35 AM 68.0 °F - 66.2 °F 94% 30.12 in 10.0 mi Calm Calm - N/A   Clear
8:55 AM 69.8 °F - 68.0 °F 94% 30.12 in 10.0 mi SW 4.6 mph - N/A   Clear
9:15 AM 71.6 °F - 68.0 °F 88% 30.12 in 10.0 mi WSW 8.1 mph - N/A   Clear
9:35 AM 71.6 °F - 68.0 °F 88% 30.12 in 10.0 mi WSW 4.6 mph - N/A   Partly Cloudy
9:55 AM 73.4 °F - 68.0 °F 83% 30.12 in 10.0 mi SW 4.6 mph - N/A   Mostly Cloudy
10:15 AM 73.4 °F - 68.0 °F 83% 30.12 in 10.0 mi West 4.6 mph - N/A   Scattered Clouds
10:35 AM 75.2 °F - 68.0 °F 78% 30.12 in 10.0 mi West 4.6 mph - N/A   Mostly Cloudy
10:55 AM 75.2 °F - 68.0 °F 78% 30.11 in 10.0 mi NW 4.6 mph - N/A   Overcast
11:15 AM 75.2 °F - 68.0 °F 78% 30.11 in 10.0 mi Calm Calm - N/A   Scattered Clouds
11:35 AM 77.0 °F - 68.0 °F 74% 30.11 in 10.0 mi Variable 4.6 mph - N/A   Mostly Cloudy
11:55 AM 77.0 °F - 68.0 °F 74% 30.10 in 10.0 mi North 4.6 mph - N/A   Mostly Cloudy
12:15 PM 77.0 °F - 68.0 °F 74% 30.10 in 10.0 mi Calm Calm - N/A   Partly Cloudy
12:35 PM 78.8 °F - 68.0 °F 69% 30.09 in 10.0 mi Calm Calm - N/A   Scattered Clouds
12:55 PM 78.8 °F - 66.2 °F 65% 30.09 in 10.0 mi Calm Calm - N/A   Mostly Cloudy
1:15 PM 78.8 °F - 68.0 °F 69% 30.08 in 10.0 mi Variable 4.6 mph - N/A   Scattered Clouds
1:35 PM 80.6 °F 83.2 °F 68.0 °F 65% 30.07 in 10.0 mi Calm Calm - N/A   Clear
1:55 PM 80.6 °F 83.2 °F 68.0 °F 65% 30.07 in 10.0 mi NNW 5.8 mph - N/A   Scattered Clouds
2:15 PM 80.6 °F 82.7 °F 66.2 °F 61% 30.07 in 10.0 mi WNW 6.9 mph - N/A   Partly Cloudy
2:35 PM 82.4 °F 84.6 °F 66.2 °F 58% 30.07 in 10.0 mi WSW 4.6 mph - N/A   Clear
2:55 PM 82.4 °F 84.6 °F 66.2 °F 58% 30.06 in 10.0 mi NW 6.9 mph - N/A   Scattered Clouds
3:15 PM 82.4 °F 84.6 °F 66.2 °F 58% 30.06 in 10.0 mi NW 6.9 mph - N/A   Scattered Clouds
3:35 PM 82.4 °F 84.6 °F 66.2 °F 58% 30.06 in 10.0 mi Variable 6.9 mph 13.8 mph N/A   Partly Cloudy
3:55 PM 80.6 °F 82.7 °F 66.2 °F 61% 30.05 in 10.0 mi NW 6.9 mph - N/A   Partly Cloudy
4:15 PM 80.6 °F 82.7 °F 66.2 °F 61% 30.04 in 10.0 mi NW 3.5 mph 11.5 mph N/A   Mostly Cloudy
4:35 PM 82.4 °F 84.6 °F 66.2 °F 58% 30.04 in 10.0 mi Variable 3.5 mph - N/A   Scattered Clouds
4:55 PM 82.4 °F 83.9 °F 64.4 °F 54% 30.04 in 10.0 mi NW 8.1 mph - N/A   Clear
5:15 PM 82.4 °F 84.6 °F 66.2 °F 58% 30.03 in 10.0 mi NW 8.1 mph - N/A   Clear
5:35 PM 82.4 °F 83.9 °F 64.4 °F 54% 30.03 in 10.0 mi NW 5.8 mph 12.7 mph N/A   Clear
5:55 PM 82.4 °F 83.9 °F 64.4 °F 54% 30.03 in 10.0 mi NW 6.9 mph - N/A   Clear
6:15 PM 80.6 °F 82.3 °F 64.4 °F 58% 30.03 in 10.0 mi NW 6.9 mph - N/A   Clear
6:35 PM 80.6 °F 81.8 °F 62.6 °F 54% 30.03 in 10.0 mi NNW 9.2 mph - N/A   Clear
6:55 PM 80.6 °F 81.8 °F 62.6 °F 54% 30.02 in 10.0 mi NW 6.9 mph - N/A   Clear
7:15 PM 80.6 °F 81.8 °F 62.6 °F 54% 30.03 in 10.0 mi Variable 5.8 mph - N/A   Clear
7:35 PM 78.8 °F - 62.6 °F 57% 30.03 in 10.0 mi NW 3.5 mph - N/A   Clear
7:55 PM 78.8 °F - 62.6 °F 57% 30.04 in 10.0 mi Calm Calm - N/A   Clear
8:15 PM 77.0 °F - 62.6 °F 61% 30.04 in 10.0 mi Calm Calm - N/A   Clear
8:35 PM 75.2 °F - 62.6 °F 65% 30.04 in 10.0 mi Calm Calm - N/A   Clear
8:55 PM 71.6 °F - 66.2 °F 83% 30.05 in 10.0 mi Calm Calm - N/A   Clear
9:15 PM 69.8 °F - 64.4 °F 83% 30.05 in 10.0 mi Calm Calm - N/A   Clear
9:35 PM 68.0 °F - 64.4 °F 88% 30.05 in 10.0 mi Calm Calm - N/A   Clear
9:55 PM 68.0 °F - 64.4 °F 88% 30.06 in 10.0 mi Calm Calm - N/A   Clear
10:15 PM 66.2 °F - 64.4 °F 94% 30.06 in 10.0 mi Calm Calm - N/A   Clear
10:35 PM 66.2 °F - 64.4 °F 94% 30.07 in 10.0 mi Calm Calm - N/A   Clear
10:55 PM 66.2 °F - 62.6 °F 88% 30.07 in 10.0 mi Calm Calm - N/A   Clear
11:15 PM 66.2 °F - 64.4 °F 94% 30.07 in 10.0 mi Calm Calm - N/A   Clear
11:55 PM 64.4 °F - 62.6 °F 94% 30.08 in 10.0 mi Calm Calm - N/A   Mostly Cloudy